QPF
0.03 0.01 0.01 0.01 0.01 0.01 0.01 0.01 0.01 0.01 0.01 0.00 0.00 0.00 0.00 0.00 0.00 0.00 0.00 0.00 0.00 0.00 0.00 0.00 0.01 0.01 0.00 0.00 0.00 0.00 0.00 0.00 0.00 0.00 0.00 0.01 0.01 0.01 0.01 0.01 0.01 0.03 0.02
0.02 0.01 0.01 0.01 0.01 0.01 0.01 0.01 0.01 0.01 0.01 0.01 0.01 0.00 0.00 0.00 0.00 0.00 0.00 0.00 0.00 0.00 0.00 0.00 0.00 0.00 0.00 0.00 0.00 0.00 0.00 0.00 0.00 0.00 0.01 0.01 0.01 0.02 0.02 0.01 0.02 0.04 0.01
0.03 0.02 0.01 0.01 0.01 0.01 0.01 0.01 0.01 0.01 0.01 0.01 0.01 0.00 0.00 0.01 0.01 0.01 0.01 0.01 0.01 0.00 0.00 0.00 0.00 0.00 0.00 0.00 0.00 0.01 0.01 0.01 0.01 0.01 0.01 0.03 0.02 0.02 0.02 0.01 0.02 0.02 0.01
0.03 0.03 0.01 0.01 0.01 0.01 0.01 0.01 0.01 0.01 0.01 0.01 0.01 0.01 0.01 0.01 0.01 0.01 0.01 0.01 0.01 0.01 0.00 0.00 0.00 0.00 0.00 0.00 0.00 0.00 0.01 0.01 0.02 0.02 0.02 0.01 0.01 0.02 0.02 0.02 0.01 0.01 0.01
0.03 0.03 0.02 0.01 0.01 0.01 0.01 0.02 0.02 0.02 0.02 0.02 0.01 0.01 0.01 0.01 0.01 0.01 0.01 0.01 0.01 0.00 0.00 0.00 0.00 0.00 0.00 0.00 0.01 0.01 0.02 0.02 0.03 0.02 0.02 0.01 0.02 0.03 0.02 0.02 0.02 0.01 0.02
0.03 0.04 0.04 0.03 0.02 0.01 0.02 0.02 0.02 0.02 0.01 0.01 0.01 0.01 0.01 0.01 0.01 0.01 0.01 0.01 0.01 0.01 0.01 0.01 0.01 0.01 0.01 0.01 0.02 0.02 0.02 0.03 0.03 0.02 0.02 0.02 0.04 0.04 0.03 0.03 0.04 0.04 0.03
0.04 0.05 0.05 0.05 0.04 0.04 0.03 0.02 0.02 0.02 0.01 0.01 0.01 0.01 0.02 0.02 0.02 0.02 0.02 0.02 0.02 0.02 0.02 0.02 0.02 0.01 0.01 0.02 0.02 0.02 0.03 0.03 0.02 0.03 0.04 0.05 0.06 0.05 0.04 0.05 0.06 0.07 0.05
0.05 0.06 0.06 0.06 0.08 0.09 0.07 0.05 0.03 0.02 0.01 0.01 0.02 0.02 0.03 0.02 0.02 0.02 0.02 0.02 0.02 0.03 0.04 0.04 0.04 0.03 0.02 0.02 0.03 0.03 0.03 0.04 0.02 0.02 0.02 0.05 0.06 0.06 0.09 0.10 0.10 0.09 0.07
0.03 0.05 0.06 0.07 0.06 0.06 0.07 0.06 0.04 0.03 0.02 0.02 0.02 0.03 0.03 0.02 0.02 0.02 0.02 0.02 0.02 0.03 0.04 0.03 0.04 0.05 0.04 0.04 0.03 0.04 0.04 0.04 0.02 0.02 0.02 0.04 0.04 0.07 0.13 0.14 0.12 0.13 0.12
0.03 0.04 0.06 0.08 0.08 0.06 0.06 0.05 0.05 0.05 0.04 0.03 0.03 0.03 0.03 0.03 0.02 0.02 0.03 0.04 0.04 0.04 0.04 0.04 0.04 0.04 0.05 0.04 0.04 0.04 0.05 0.05 0.03 0.02 0.03 0.03 0.04 0.09 0.15 0.16 0.14 0.15 0.14
0.02 0.03 0.05 0.06 0.07 0.07 0.07 0.06 0.06 0.05 0.04 0.04 0.04 0.03 0.04 0.04 0.04 0.03 0.03 0.04 0.04 0.04 0.03 0.04 0.04 0.05 0.05 0.05 0.05 0.05 0.04 0.05 0.05 0.05 0.04 0.04 0.05 0.11 0.16 0.17 0.16 0.16 0.15
0.02 0.02 0.04 0.05 0.04 0.04 0.04 0.05 0.06 0.05 0.04 0.04 0.04 0.04 0.04 0.04 0.04 0.03 0.03 0.02 0.02 0.03 0.03 0.02 0.03 0.04 0.06 0.08 0.08 0.06 0.05 0.04 0.05 0.05 0.06 0.04 0.07 0.13 0.18 0.20 0.20 0.20 0.19
0.03 0.03 0.03 0.02 0.03 0.03 0.04 0.04 0.04 0.04 0.04 0.04 0.04 0.04 0.04 0.04 0.04 0.04 0.04 0.02 0.03 0.03 0.04 0.04 0.03 0.04 0.04 0.06 0.07 0.06 0.06 0.05 0.05 0.04 0.06 0.05 0.06 0.11 0.16 0.18 0.19 0.20 0.20
0.05 0.05 0.04 0.03 0.03 0.04 0.04 0.03 0.04 0.04 0.04 0.04 0.04 0.04 0.05 0.05 0.04 0.04 0.04 0.04 0.06 0.05 0.04 0.04 0.04 0.05 0.04 0.04 0.05 0.05 0.05 0.07 0.06 0.07 0.08 0.06 0.06 0.09 0.13 0.16 0.18 0.18 0.18
0.05 0.05 0.04 0.02 0.02 0.02 0.02 0.02 0.03 0.03 0.03 0.03 0.03 0.04 0.04 0.04 0.04 0.06 0.06 0.06 0.06 0.05 0.04 0.04 0.03 0.04 0.03 0.03 0.03 0.04 0.05 0.05 0.06 0.07 0.07 0.07 0.07 0.09 0.11 0.15 0.18 0.20 0.20
0.05 0.05 0.03 0.02 0.02 0.02 0.03 0.02 0.02 0.02 0.03 0.03 0.03 0.03 0.03 0.04 0.05 0.06 0.07 0.06 0.05 0.05 0.05 0.04 0.04 0.04 0.03 0.04 0.03 0.03 0.03 0.04 0.05 0.06 0.07 0.09 0.09 0.09 0.11 0.14 0.16 0.19 0.22
0.07 0.10 0.06 0.04 0.04 0.04 0.04 0.03 0.03 0.03 0.02 0.02 0.02 0.02 0.02 0.03 0.05 0.06 0.07 0.06 0.05 0.06 0.05 0.05 0.05 0.05 0.04 0.05 0.05 0.04 0.04 0.06 0.06 0.06 0.06 0.10 0.10 0.10 0.11 0.12 0.14 0.15 0.18
0.05 0.11 0.10 0.05 0.05 0.04 0.04 0.05 0.05 0.05 0.04 0.03 0.02 0.02 0.01 0.02 0.03 0.05 0.07 0.07 0.07 0.05 0.05 0.05 0.06 0.05 0.05 0.06 0.06 0.05 0.04 0.06 0.05 0.06 0.09 0.10 0.10 0.10 0.10 0.08 0.10 0.11 0.13
0.06 0.05 0.05 0.05 0.06 0.04 0.03 0.04 0.04 0.04 0.04 0.03 0.02 0.01 0.01 0.01 0.02 0.04 0.07 0.08 0.09 0.07 0.06 0.05 0.06 0.06 0.06 0.06 0.05 0.05 0.04 0.04 0.05 0.06 0.08 0.09 0.08 0.08 0.08 0.07 0.07 0.08 0.09
0.06 0.05 0.05 0.05 0.05 0.04 0.03 0.03 0.03 0.03 0.04 0.03 0.02 0.01 0.02 0.02 0.03 0.03 0.05 0.06 0.08 0.09 0.08 0.07 0.07 0.07 0.07 0.07 0.07 0.07 0.05 0.04 0.05 0.05 0.07 0.08 0.07 0.06 0.06 0.07 0.08 0.08 0.08
0.05 0.06 0.06 0.06 0.05 0.05 0.04 0.04 0.04 0.04 0.03 0.02 0.02 0.02 0.03 0.03 0.03 0.04 0.04 0.05 0.06 0.07 0.07 0.06 0.07 0.08 0.07 0.08 0.09 0.08 0.05 0.03 0.03 0.04 0.06 0.06 0.06 0.06 0.05 0.06 0.07 0.06 0.06
0.04 0.05 0.06 0.07 0.06 0.05 0.05 0.05 0.04 0.04 0.04 0.03 0.03 0.04 0.03 0.03 0.04 0.03 0.03 0.04 0.04 0.06 0.06 0.06 0.06 0.07 0.07 0.07 0.08 0.09 0.08 0.05 0.04 0.03 0.04 0.05 0.05 0.04 0.04 0.04 0.04 0.04 0.03
0.05 0.04 0.05 0.06 0.07 0.06 0.05 0.04 0.05 0.05 0.04 0.04 0.03 0.04 0.04 0.04 0.04 0.02 0.02 0.03 0.04 0.04 0.05 0.06 0.06 0.06 0.07 0.08 0.07 0.08 0.08 0.07 0.06 0.06 0.06 0.08 0.10 0.07 0.05 0.04 0.03 0.03 0.03
0.05 0.06 0.06 0.05 0.05 0.04 0.04 0.05 0.07 0.07 0.05 0.05 0.05 0.05 0.05 0.05 0.04 0.03 0.02 0.03 0.03 0.04 0.04 0.05 0.06 0.06 0.06 0.08 0.09 0.07 0.07 0.07 0.07 0.08 0.06 0.07 0.12 0.10 0.05 0.03 0.03 0.02 0.03
0.07 0.07 0.05 0.04 0.03 0.04 0.04 0.07 0.07 0.06 0.05 0.05 0.06 0.06 0.06 0.07 0.06 0.05 0.05 0.04 0.04 0.03 0.03 0.04 0.04 0.04 0.04 0.06 0.07 0.08 0.07 0.06 0.07 0.07 0.08 0.09 0.10 0.09 0.07 0.04 0.04 0.03 0.03
0.06 0.04 0.03 0.03 0.03 0.03 0.03 0.04 0.04 0.06 0.07 0.07 0.07 0.07 0.07 0.06 0.06 0.05 0.05 0.05 0.04 0.04 0.03 0.03 0.03 0.04 0.04 0.05 0.06 0.06 0.06 0.07 0.07 0.08 0.08 0.08 0.10 0.11 0.09 0.05 0.03 0.04 0.04
MSLP
1014.54 1014.61 1014.85 1015.23 1015.65 1016.03 1016.30 1016.42 1016.43 1016.37 1016.32 1016.35 1016.51 1016.79 1017.14 1017.52 1017.83 1018.04 1018.12 1018.07 1017.95 1017.81 1017.70 1017.67 1017.70 1017.79 1017.89 1017.97 1017.99 1017.94 1017.84 1017.73 1017.62 1017.57 1017.59 1017.68 1017.81 1017.96 1018.11 1018.23 1018.33 1018.42 1018.50
1014.48 1014.62 1014.94 1015.40 1015.89 1016.33 1016.64 1016.79 1016.79 1016.72 1016.65 1016.66 1016.78 1017.03 1017.36 1017.71 1018.01 1018.20 1018.26 1018.19 1018.06 1017.91 1017.80 1017.77 1017.81 1017.93 1018.05 1018.15 1018.19 1018.15 1018.05 1017.93 1017.81 1017.75 1017.75 1017.82 1017.95 1018.10 1018.25 1018.39 1018.50 1018.59 1018.68
1014.45 1014.66 1015.06 1015.58 1016.13 1016.62 1016.97 1017.15 1017.18 1017.11 1017.03 1017.01 1017.10 1017.30 1017.59 1017.89 1018.15 1018.30 1018.33 1018.25 1018.11 1017.96 1017.86 1017.85 1017.93 1018.06 1018.20 1018.31 1018.35 1018.31 1018.20 1018.05 1017.92 1017.83 1017.81 1017.87 1017.98 1018.14 1018.30 1018.45 1018.58 1018.70 1018.80
1014.52 1014.78 1015.22 1015.79 1016.38 1016.90 1017.28 1017.49 1017.54 1017.48 1017.40 1017.36 1017.43 1017.59 1017.83 1018.08 1018.28 1018.39 1018.39 1018.30 1018.16 1018.03 1017.96 1017.97 1018.06 1018.21 1018.36 1018.46 1018.48 1018.41 1018.27 1018.09 1017.92 1017.80 1017.76 1017.81 1017.93 1018.09 1018.27 1018.45 1018.61 1018.75 1018.89
1014.70 1015.00 1015.45 1016.03 1016.62 1017.15 1017.54 1017.77 1017.83 1017.79 1017.72 1017.69 1017.74 1017.87 1018.06 1018.27 1018.43 1018.51 1018.49 1018.39 1018.26 1018.15 1018.10 1018.13 1018.24 1018.38 1018.52 1018.59 1018.58 1018.46 1018.27 1018.05 1017.84 1017.69 1017.63 1017.67 1017.79 1017.97 1018.18 1018.39 1018.59 1018.77 1018.94
1015.00 1015.29 1015.73 1016.28 1016.85 1017.35 1017.73 1017.95 1018.03 1018.01 1017.96 1017.95 1017.99 1018.12 1018.29 1018.46 1018.60 1018.65 1018.62 1018.53 1018.41 1018.32 1018.29 1018.33 1018.44 1018.56 1018.67 1018.69 1018.62 1018.45 1018.21 1017.94 1017.69 1017.52 1017.45 1017.48 1017.62 1017.82 1018.06 1018.30 1018.54 1018.76 1018.95
1015.37 1015.63 1016.03 1016.52 1017.03 1017.48 1017.83 1018.04 1018.12 1018.13 1018.10 1018.11 1018.18 1018.31 1018.47 1018.63 1018.75 1018.79 1018.76 1018.67 1018.57 1018.49 1018.47 1018.52 1018.61 1018.71 1018.77 1018.74 1018.61 1018.38 1018.09 1017.77 1017.49 1017.30 1017.22 1017.27 1017.42 1017.64 1017.91 1018.19 1018.46 1018.71 1018.93
1015.77 1015.97 1016.30 1016.72 1017.15 1017.54 1017.84 1018.03 1018.12 1018.14 1018.15 1018.19 1018.28 1018.42 1018.59 1018.74 1018.84 1018.88 1018.84 1018.76 1018.67 1018.61 1018.59 1018.63 1018.71 1018.77 1018.78 1018.71 1018.52 1018.25 1017.91 1017.56 1017.26 1017.07 1016.99 1017.05 1017.21 1017.46 1017.75 1018.05 1018.34 1018.61 1018.86
1016.14 1016.29 1016.55 1016.88 1017.24 1017.56 1017.81 1017.97 1018.05 1018.09 1018.13 1018.19 1018.31 1018.46 1018.62 1018.76 1018.85 1018.87 1018.83 1018.75 1018.66 1018.60 1018.58 1018.61 1018.67 1018.70 1018.68 1018.57 1018.35 1018.04 1017.68 1017.33 1017.03 1016.83 1016.77 1016.84 1017.01 1017.27 1017.57 1017.88 1018.19 1018.47 1018.72
1016.47 1016.57 1016.77 1017.04 1017.33 1017.59 1017.79 1017.92 1018.00 1018.04 1018.09 1018.17 1018.29 1018.44 1018.59 1018.71 1018.77 1018.77 1018.70 1018.61 1018.51 1018.44 1018.42 1018.44 1018.48 1018.50 1018.45 1018.32 1018.09 1017.78 1017.43 1017.08 1016.79 1016.61 1016.56 1016.64 1016.82 1017.08 1017.38 1017.69 1017.99 1018.26 1018.52
1016.78 1016.86 1017.02 1017.24 1017.46 1017.67 1017.83 1017.94 1018.00 1018.05 1018.10 1018.18 1018.28 1018.41 1018.52 1018.60 1018.63 1018.58 1018.49 1018.37 1018.25 1018.17 1018.13 1018.14 1018.17 1018.18 1018.13 1018.00 1017.78 1017.49 1017.16 1016.84 1016.57 1016.41 1016.37 1016.45 1016.63 1016.88 1017.17 1017.46 1017.74 1018.00 1018.25
1017.13 1017.20 1017.33 1017.51 1017.70 1017.87 1017.99 1018.07 1018.12 1018.15 1018.19 1018.25 1018.32 1018.41 1018.48 1018.51 1018.48 1018.38 1018.25 1018.09 1017.94 1017.84 1017.78 1017.77 1017.79 1017.80 1017.75 1017.64 1017.45 1017.18 1016.89 1016.60 1016.37 1016.23 1016.20 1016.28 1016.44 1016.67 1016.93 1017.19 1017.45 1017.69 1017.93
1017.54 1017.62 1017.74 1017.90 1018.06 1018.19 1018.29 1018.34 1018.36 1018.37 1018.39 1018.41 1018.45 1018.49 1018.50 1018.47 1018.39 1018.24 1018.06 1017.86 1017.68 1017.54 1017.45 1017.42 1017.42 1017.42 1017.38 1017.28 1017.11 1016.89 1016.63 1016.38 1016.18 1016.05 1016.02 1016.08 1016.22 1016.42 1016.65 1016.88 1017.11 1017.33 1017.55
1018.05 1018.14 1018.26 1018.40 1018.53 1018.63 1018.70 1018.72 1018.72 1018.70 1018.69 1018.68 1018.67 1018.67 1018.63 1018.55 1018.42 1018.23 1018.00 1017.76 1017.54 1017.36 1017.23 1017.15 1017.12 1017.09 1017.04 1016.95 1016.80 1016.61 1016.38 1016.16 1015.97 1015.85 1015.80 1015.85 1015.96 1016.12 1016.31 1016.51 1016.71 1016.91 1017.12
1018.64 1018.74 1018.85 1018.96 1019.07 1019.14 1019.17 1019.17 1019.14 1019.10 1019.05 1019.02 1018.98 1018.94 1018.87 1018.76 1018.60 1018.38 1018.12 1017.84 1017.57 1017.33 1017.15 1017.02 1016.92 1016.85 1016.77 1016.66 1016.51 1016.33 1016.11 1015.90 1015.72 1015.58 1015.52 1015.53 1015.61 1015.73 1015.89 1016.06 1016.25 1016.43 1016.63
1019.26 1019.35 1019.45 1019.54 1019.61 1019.64 1019.65 1019.62 1019.57 1019.50 1019.44 1019.39 1019.34 1019.28 1019.20 1019.08 1018.90 1018.67 1018.39 1018.08 1017.77 1017.48 1017.22 1017.01 1016.84 1016.70 1016.56 1016.41 1016.24 1016.03 1015.81 1015.59 1015.39 1015.24 1015.15 1015.12 1015.15 1015.24 1015.37 1015.52 1015.69 1015.88 1016.08
1019.86 1019.93 1020.00 1020.05 1020.09 1020.09 1020.07 1020.01 1019.95 1019.87 1019.80 1019.74 1019.69 1019.63 1019.56 1019.45 1019.28 1019.06 1018.77 1018.44 1018.09 1017.74 1017.40 1017.11 1016.85 1016.61 1016.40 1016.18 1015.96 1015.72 1015.47 1015.22 1014.99 1014.81 1014.68 1014.61 1014.60 1014.65 1014.75 1014.89 1015.05 1015.25 1015.46
1020.38 1020.43 1020.46 1020.48 1020.48 1020.45 1020.40 1020.33 1020.25 1020.17 1020.10 1020.04 1019.99 1019.95 1019.89 1019.80 1019.66 1019.45 1019.17 1018.83 1018.44 1018.04 1017.64 1017.25 1016.89 1016.57 1016.26 1015.97 1015.68 1015.39 1015.10 1014.82 1014.55 1014.32 1014.15 1014.03 1013.98 1013.99 1014.07 1014.19 1014.35 1014.56 1014.79
1020.80 1020.83 1020.84 1020.82 1020.79 1020.74 1020.67 1020.59 1020.50 1020.42 1020.34 1020.28 1020.24 1020.20 1020.15 1020.08 1019.96 1019.77 1019.50 1019.16 1018.76 1018.32 1017.86 1017.40 1016.96 1016.55 1016.16 1015.79 1015.44 1015.09 1014.75 1014.42 1014.11 1013.84 1013.61 1013.45 1013.35 1013.33 1013.37 1013.48 1013.64 1013.85 1014.10
1021.15 1021.17 1021.16 1021.12 1021.07 1021.00 1020.92 1020.83 1020.73 1020.63 1020.55 1020.47 1020.42 1020.37 1020.33 1020.26 1020.15 1019.97 1019.72 1019.39 1018.99 1018.53 1018.04 1017.53 1017.03 1016.56 1016.10 1015.68 1015.27 1014.87 1014.48 1014.11 1013.75 1013.43 1013.16 1012.95 1012.80 1012.74 1012.74 1012.83 1012.97 1013.18 1013.44
1021.48 1021.51 1021.49 1021.44 1021.37 1021.29 1021.20 1021.10 1020.99 1020.87 1020.76 1020.65 1020.56 1020.49 1020.41 1020.33 1020.21 1020.05 1019.81 1019.50 1019.11 1018.66 1018.16 1017.64 1017.12 1016.61 1016.12 1015.65 1015.21 1014.77 1014.35 1013.94 1013.54 1013.18 1012.86 1012.60 1012.41 1012.30 1012.27 1012.32 1012.44 1012.63 1012.88
1021.84 1021.89 1021.87 1021.82 1021.74 1021.66 1021.55 1021.44 1021.31 1021.16 1021.00 1020.85 1020.70 1020.57 1020.45 1020.32 1020.18 1020.01 1019.78 1019.49 1019.13 1018.71 1018.25 1017.75 1017.24 1016.73 1016.23 1015.75 1015.28 1014.83 1014.38 1013.94 1013.52 1013.12 1012.77 1012.47 1012.24 1012.08 1012.01 1012.02 1012.10 1012.26 1012.48
1022.29 1022.35 1022.34 1022.28 1022.20 1022.10 1021.99 1021.85 1021.69 1021.50 1021.29 1021.07 1020.85 1020.65 1020.46 1020.28 1020.10 1019.91 1019.69 1019.42 1019.10 1018.73 1018.31 1017.86 1017.39 1016.90 1016.42 1015.95 1015.48 1015.02 1014.57 1014.12 1013.68 1013.27 1012.89 1012.57 1012.30 1012.11 1012.00 1011.96 1012.00 1012.12 1012.29
1022.79 1022.87 1022.85 1022.79 1022.70 1022.58 1022.45 1022.29 1022.10 1021.87 1021.61 1021.32 1021.03 1020.74 1020.47 1020.23 1020.00 1019.79 1019.56 1019.32 1019.04 1018.72 1018.36 1017.96 1017.54 1017.10 1016.66 1016.20 1015.75 1015.30 1014.85 1014.40 1013.97 1013.56 1013.18 1012.85 1012.58 1012.36 1012.22 1012.14 1012.13 1012.19 1012.31
1023.31 1023.37 1023.35 1023.27 1023.15 1023.02 1022.87 1022.69 1022.47 1022.20 1021.89 1021.55 1021.19 1020.84 1020.50 1020.20 1019.93 1019.68 1019.45 1019.21 1018.97 1018.69 1018.38 1018.04 1017.67 1017.27 1016.86 1016.43 1015.99 1015.56 1015.12 1014.70 1014.29 1013.90 1013.54 1013.23 1012.96 1012.75 1012.59 1012.49 1012.44 1012.45 1012.51
1023.74 1023.78 1023.73 1023.61 1023.48 1023.32 1023.15 1022.95 1022.72 1022.44 1022.10 1021.73 1021.33 1020.93 1020.54 1020.19 1019.88 1019.60 1019.36 1019.12 1018.89 1018.64 1018.36 1018.05 1017.71 1017.34 1016.95 1016.54 1016.12 1015.70 1015.29 1014.89 1014.52 1014.17 1013.86 1013.59 1013.36 1013.17 1013.02 1012.91 1012.84 1012.81 1012.82
Thickness
5799 5794 5783 5781 5779 5778 5777 5776 5774 5772 5770 5768 5765 5763 5761 5759 5758 5756 5755 5753 5752 5752 5751 5751 5750 5749 5749 5748 5748 5747 5746 5746 5745 5745 5744 5743 5742 5741 5740 5739 5740 5741 5736
5800 5791 5781 5778 5776 5775 5774 5772 5771 5769 5766 5764 5762 5759 5757 5756 5754 5753 5751 5750 5749 5748 5748 5747 5746 5746 5746 5745 5744 5744 5743 5743 5743 5742 5742 5742 5740 5739 5738 5737 5737 5739 5734
5796 5788 5779 5775 5773 5771 5770 5768 5767 5765 5762 5760 5758 5755 5754 5752 5750 5749 5748 5747 5746 5745 5745 5744 5743 5742 5742 5742 5741 5741 5740 5740 5740 5740 5741 5744 5742 5737 5735 5734 5733 5732 5731
5791 5785 5779 5772 5770 5768 5766 5765 5763 5760 5758 5756 5754 5752 5750 5748 5747 5746 5744 5743 5743 5742 5741 5741 5740 5739 5738 5738 5738 5737 5737 5737 5737 5738 5742 5746 5743 5736 5733 5732 5730 5729 5728
5786 5781 5775 5769 5766 5764 5762 5761 5759 5757 5754 5752 5750 5748 5747 5745 5744 5742 5741 5740 5739 5739 5738 5737 5737 5736 5735 5735 5734 5734 5734 5734 5735 5737 5743 5743 5741 5734 5731 5729 5728 5727 5726
5782 5778 5771 5765 5762 5760 5758 5756 5755 5753 5751 5748 5746 5744 5743 5742 5740 5739 5738 5737 5736 5735 5734 5734 5733 5733 5732 5732 5731 5731 5731 5731 5733 5740 5741 5740 5739 5731 5728 5727 5725 5724 5723
5780 5775 5767 5761 5758 5756 5754 5752 5751 5749 5747 5745 5743 5741 5739 5738 5736 5735 5734 5733 5732 5731 5731 5730 5729 5729 5729 5728 5728 5728 5728 5729 5733 5739 5739 5738 5736 5730 5726 5724 5723 5722 5721
5776 5771 5764 5757 5754 5752 5750 5748 5746 5744 5742 5741 5739 5737 5735 5734 5732 5731 5730 5729 5728 5727 5727 5726 5726 5725 5725 5725 5725 5725 5725 5726 5732 5738 5737 5736 5731 5727 5724 5722 5720 5719 5718
5773 5769 5762 5757 5752 5748 5746 5744 5742 5740 5738 5736 5735 5733 5731 5730 5728 5727 5726 5725 5724 5724 5723 5723 5722 5722 5722 5722 5722 5722 5723 5724 5728 5734 5735 5733 5729 5724 5722 5720 5719 5717 5716
5768 5765 5761 5757 5753 5748 5744 5740 5738 5736 5734 5732 5730 5728 5727 5726 5724 5723 5722 5721 5720 5719 5719 5719 5718 5718 5719 5719 5719 5719 5720 5721 5728 5732 5732 5730 5725 5722 5720 5718 5717 5715 5714
5760 5759 5757 5754 5750 5747 5744 5738 5735 5732 5730 5728 5726 5724 5723 5725 5724 5721 5719 5717 5716 5715 5715 5715 5715 5715 5716 5716 5716 5716 5717 5723 5728 5728 5727 5724 5721 5719 5718 5717 5715 5714 5712
5752 5753 5752 5749 5746 5744 5741 5735 5733 5731 5728 5727 5725 5723 5722 5721 5719 5719 5715 5712 5711 5711 5711 5711 5712 5713 5714 5718 5716 5715 5719 5722 5724 5724 5722 5719 5717 5716 5715 5714 5713 5712 5711
5749 5747 5746 5744 5741 5739 5736 5733 5730 5728 5724 5723 5721 5719 5717 5716 5715 5714 5712 5710 5709 5709 5710 5709 5711 5712 5713 5714 5714 5715 5716 5717 5719 5720 5719 5715 5713 5712 5712 5712 5711 5711 5709
5744 5741 5740 5738 5735 5733 5731 5728 5725 5723 5720 5719 5716 5714 5713 5712 5711 5709 5707 5707 5706 5706 5705 5706 5706 5707 5707 5708 5709 5711 5712 5712 5712 5713 5711 5710 5708 5708 5709 5709 5709 5709 5707
5740 5737 5735 5732 5729 5726 5724 5722 5720 5718 5716 5714 5711 5709 5707 5708 5706 5704 5702 5701 5701 5701 5701 5700 5702 5702 5702 5704 5705 5705 5706 5706 5706 5706 5706 5705 5704 5704 5705 5706 5706 5706 5706
5735 5731 5730 5727 5723 5720 5718 5716 5714 5713 5709 5709 5706 5704 5702 5701 5700 5699 5698 5696 5696 5696 5695 5695 5696 5696 5697 5698 5699 5699 5698 5699 5699 5698 5700 5700 5700 5700 5701 5702 5702 5703 5703
5730 5727 5723 5721 5718 5715 5712 5710 5709 5707 5705 5703 5700 5698 5696 5695 5694 5693 5693 5692 5691 5690 5689 5689 5690 5690 5691 5692 5693 5693 5692 5692 5692 5693 5694 5695 5697 5696 5696 5697 5698 5699 5699
5726 5721 5718 5717 5712 5709 5706 5703 5703 5701 5698 5696 5695 5693 5691 5689 5688 5687 5687 5686 5685 5685 5685 5685 5685 5685 5686 5686 5686 5686 5686 5685 5685 5686 5688 5689 5690 5692 5691 5691 5692 5693 5695
5720 5716 5712 5710 5707 5704 5700 5698 5696 5693 5691 5690 5688 5687 5684 5682 5681 5681 5681 5679 5679 5679 5679 5679 5680 5678 5679 5678 5679 5679 5680 5679 5678 5680 5681 5682 5683 5684 5686 5686 5686 5687 5689
5714 5710 5707 5704 5701 5698 5696 5693 5690 5688 5685 5683 5681 5678 5677 5676 5675 5674 5674 5672 5672 5673 5672 5671 5670 5670 5670 5670 5673 5672 5672 5672 5672 5672 5673 5675 5675 5677 5679 5681 5682 5682 5682
5708 5705 5701 5697 5694 5691 5690 5688 5684 5681 5679 5676 5673 5670 5669 5668 5667 5667 5667 5665 5664 5664 5663 5664 5664 5664 5664 5663 5663 5663 5665 5666 5666 5665 5666 5667 5669 5670 5671 5673 5675 5676 5677
5702 5699 5695 5691 5688 5685 5683 5681 5678 5676 5673 5670 5666 5662 5661 5660 5659 5660 5658 5658 5657 5656 5655 5655 5654 5655 5656 5656 5655 5655 5655 5656 5657 5659 5659 5659 5661 5663 5664 5665 5666 5667 5669
5698 5694 5690 5686 5683 5681 5678 5676 5672 5669 5667 5664 5660 5657 5654 5653 5651 5650 5650 5649 5649 5649 5648 5647 5647 5646 5647 5648 5648 5647 5646 5647 5648 5650 5650 5651 5652 5654 5655 5657 5659 5660 5661
5693 5689 5685 5681 5677 5675 5672 5669 5666 5662 5659 5656 5653 5650 5647 5645 5643 5642 5641 5641 5640 5640 5639 5639 5640 5639 5638 5640 5641 5640 5640 5639 5636 5637 5641 5642 5643 5644 5646 5649 5650 5652 5654
5687 5683 5679 5675 5671 5668 5665 5662 5658 5656 5653 5650 5646 5642 5640 5638 5635 5634 5633 5632 5631 5631 5630 5629 5630 5630 5631 5631 5632 5632 5632 5632 5632 5631 5630 5631 5633 5636 5637 5639 5641 5644 5646
5681 5678 5674 5670 5666 5662 5659 5655 5652 5648 5644 5641 5638 5634 5633 5632 5629 5626 5625 5624 5624 5623 5622 5622 5621 5622 5622 5622 5624 5625 5624 5624 5624 5625 5624 5623 5623 5625 5628 5630 5634 5637 5639